Regional Weather Roundup
Issued by NWS

Home | Current Version | Previous Version | Text Only | Print | Product List | Glossary Off
Versions: 1 2 3 4 5 6 7 8 9 10 11 12 13 14 15 16 17 18 19 20 21 22 23 24 25 26 27 28 29 30 31 32 33 34 35 36 37 38 39 40 41 42 43 44 45 46 47 48 49 50

000
ASUS43 KDMX 302307
RWRIA

WEATHER ROUNDUP FOR IOWA
NATIONAL WEATHER SERVICE DES MOINES IA
600 PM CDT THU JUL 30 2015

NOTE: "FAIR" INDICATES FEW OR NO CLOUDS BELOW 12,000 FEET WITH NO
SIGNIFICANT WEATHER AND/OR OBSTRUCTIONS TO VISIBILITY.

* - THESE STATIONS ARE NOT NWS STATIONS...THUS NOT UNDER NWS
QUALITY CONTROL.  THEY ALSO DO NOT REPORT WEATHER SUCH
AS PRECIPITATION OR FOG.

IAZ001>003-012>014-020>022-031>034-043>046-310000-
   NORTHWEST IOWA

CITY           SKY/WX    TMP DP  RH WIND       PRES   REMARKS
CARROLL *      SUNNY     82  64  54 W9G16     30.12F HX  84
CHEROKEE *     SUNNY     84  68  58 SW8       30.11F HX  87
DENISON *      HAZE      82  66  57 SW8       30.11F VSB 1/4 HX  85
LE MARS *      SUNNY     84  68  58 W7        30.11F HX  87
ORANGE CITY *  SUNNY     82  66  57 W6        30.12S HX  85
SHELDON *      SUNNY     84  64  51 CALM      30.11S HX  86
SIOUX CITY     SUNNY     86  68  54 SW7       30.10F HX  89
SPENCER        SUNNY     86  61  42 W7        30.11F HX  86
STORM LAKE *   SUNNY     82  66  57 W10       30.13F HX  85
$$

IAZ055>058-069>071-079>083-090>094-310000-
   SOUTHWEST IOWA

CITY           SKY/WX    TMP DP  RH WIND       PRES   REMARKS
ATLANTIC *     SUNNY     84  66  54 W3        30.13F HX  86
AUDUBON *      SUNNY     84  64  51 CALM      30.15F HX  86
CLARINDA *     SUNNY     86  64  48 W7        30.16S HX  87
COUNCIL BLFS * SUNNY     86  61  42 SW9       30.14S HX  86
CRESTON *      SUNNY     82  64  54 W12       30.16F HX  84
HARLAN  *      SUNNY     84  68  58 W8        30.17F HX  87
LAMONI         SUNNY     85  64  49 W6        30.15F HX  86
RED OAK *      SUNNY     86  64  48 SW6       30.14F HX  87
SHENANDOAH *   SUNNY     86  66  51 SW5       30.14F HX  88
$$

IAZ047>049-059>061-072>074-084-310000-
   CENTRAL IOWA

CITY           SKY/WX    TMP DP  RH WIND       PRES   REMARKS
AMES           SUNNY     83  67  58 W8        30.10F HX  85
ANKENY *       SUNNY     86  61  42 W12       30.10F HX  86
CHARITON *     SUNNY     84  63  48 W8        30.13F HX  85
DES MOINES     MOSUNNY   87  56  34 W13       30.11S HX  85
GRINNELL*      SUNNY     84  64  51 W10       30.11S HX  86
KNOXVILLE *    SUNNY     84  63  48 W6G14     30.10F HX  85
MARSHALLTOWN   MOSUNNY   83  69  62 W7        30.09F HX  86
PELLA *        SUNNY     86  68  54 W10       30.11F HX  89
PERRY *          N/A     84  66  54 W9        30.12F HX  86
$$

IAZ004>006-015-016-023>025-035-036-310000-
   NORTH CENTRAL IOWA

CITY           SKY/WX    TMP DP  RH WIND       PRES   REMARKS
ALGONA *       SUNNY     84  63  48 W7        30.10F HX  85
CLARION *      SUNNY     82  66  57 W8        30.10F HX  85
ESTHERVILLE    MOSUNNY   82  63  52 W8        30.10F HX  83
FORT DODGE *   SUNNY     84  66  54 W7        30.11F HX  86
MASON CITY     SUNNY     84  62  47 W9        30.11S HX  85
FOREST CITY *  SUNNY     81  61  50 W5        30.10F HX  81
IOWA FALLS *     N/A     84  64  51 W6        30.11F HX  86
$$

IAZ007>011-017>019-026>030-037>042-050>054-066-310000-
   NORTHEAST IOWA

CITY           SKY/WX    TMP DP  RH WIND       PRES   REMARKS
CEDAR RAPIDS   SUNNY     83  68  60 W9        30.07F HX  86
CHARLES CITY * SUNNY     81  64  57 NW7       30.09S HX  82
CLINTON *      SUNNY     84  66  54 W9        30.07F HX  86
DECORAH *      SUNNY     81  57  44 W7G14     30.06S HX  81
DUBUQUE        SUNNY     84  59  42 W13       30.06F HX  84
MONTICELLO *   SUNNY     84  61  45 W12G17    30.06S HX  84
OELWEIN *      SUNNY     82  64  54 NW8       30.09S HX  84
WATERLOO       SUNNY     85  64  49 W8        30.06F HX  86
$$

IAZ064-065-067-068-078-310000-
   EAST CENTRAL IOWA

CITY           SKY/WX    TMP DP  RH WIND       PRES   REMARKS
DAVENPORT      SUNNY     84  68  58 W10       30.06F HX  87
IOWA CITY      SUNNY     85  65  51 W14       30.08F HX  86
MT. PLEASANT * SUNNY     88  55  33 W6        30.10S HX  86
MUSCATINE *    SUNNY     86  66  51 NW15      30.07S HX  88
QUAD CITIES    SUNNY     87  64  46 W12       30.05F HX  88
$$

IAZ062-063-075>077-085>089-095>099-310000-
   SOUTHEAST IOWA

CITY           SKY/WX    TMP DP  RH WIND       PRES   REMARKS
BURLINGTON     SUNNY     86  64  47 W10G17    30.09F HX  87
FAIRFIELD *    SUNNY     84  63  48 W10G18    30.10F HX  85
FORT MADISON * SUNNY     84  64  51 W8        30.11S HX  86
KEOKUK *       SUNNY     88  64  45 W8        30.09F HX  89
OSKALOOSA *      N/A     82  66  57 W6        30.11F HX  85
CENTERVILLE *  SUNNY     84  66  54 W8        30.15S HX  86
OTTUMWA        SUNNY     83  65  54 W8        30.09F HX  85
WASHINGTON *   SUNNY     84  68  58 W10G17    30.10S HX  87
$$

ABBREVIATIONS USED IN REMARKS
   TC - TEMPERATURES IN CELSIUS
  WCI - WIND CHILL INDEX
   HX - HEAT INDEX
  VSB - VISIBILITY
$$



USA.gov is the U.S. government's official web portal to all federal, state and local government web resources and services.